Regional Weather Roundup
Issued by NWS Mt. Holly, NJ

Home | Current Version | Previous Version | Text Only | Print | Product List | Glossary On
Versions: 1 2 3 4 5 6 7 8 9 10 11 12 13 14 15 16 17 18 19 20 21 22 23 24 25 26 27 28 29 30 31 32 33 34 35 36 37 38 39 40 41 42 43 44 45 46 47 48 49 50
000
ASUS41 KPHI 291610
RWRPHI

REGIONAL WEATHER ROUNDUP
NATIONAL WEATHER SERVICE MOUNT HOLLY NJ
1100 AM EST MON DEC 29 2014

NOTE:  "FAIR" INDICATES FEW OR NO CLOUDS BELOW 12,000 FEET WITH NO
SIGNIFICANT WEATHER AND/OR OBSTRUCTIONS TO VISIBILITY.

 * = STATION DOES NOT REPORT PRECIPITATION (E.G. RAIN, SNOW, ETC.)
        OR FOG.

NJZ015>026-291700-
SOUTHERN NEW JERSEY

CITY           SKY/WX    TMP DP  RH WIND       PRES   REMARKS
POMONA         CLOUDY    41  27  57 N7        30.21S
RIO GRANDE*    CLOUDY    39  30  70 N5        30.21R
MILLVILLE      CLOUDY    41  25  53 N8        30.22R
WRIGHTSTOWN    CLOUDY    40  23  50 N9        30.18F WCI  35
MOUNT HOLLY    PTSUNNY   40  24  53 N8        30.21F WCI  34
TRENTON        PTSUNNY   40  21  46 N7        30.20S

$$
NJZ001>014-291700-
NORTHERN NEW JERSEY

CITY           SKY/WX    TMP DP  RH WIND       PRES   REMARKS
SUSSEX         MOSUNNY   38  22  52 N8        30.18F WCI  32
ANDOVER*       NOT AVBL
MORRISTOWN     MOSUNNY   41  19  42 N7G13     30.20F
NEWARK         PTSUNNY   41  19  41 NW8       30.20F
TETERBORO      MOSUNNY   42  20  41 NW12      30.18F
CALDWELL       MOSUNNY   41  19  41 VRB7      30.19F
SOMERVILLE     MOSUNNY   41  22  46 N5        30.18F
ALLAIRE*       CLOUDY    39  19  45 N8        30.18F WCI  34
TOMS RIVER*    CLOUDY    39  21  48 N7        30.20F WCI  34

$$
PAZ043-044-047-054-055-060>062-066>071-291700-
EASTERN PENNSYLVANIA

CITY           SKY/WX    TMP DP  RH WIND       PRES   REMARKS
PHILADELPHIA   PTSUNNY   42  23  46 N8        30.23R
NORTH PHILA    PTSUNNY   43  21  41 N9        30.23F
BLUE BELL      MOSUNNY   41  25  52 N3        30.20F
DOYLESTOWN     MOSUNNY   38  22  52 N6        30.19F WCI  33
QUAKERTOWN*    SUNNY     39  21  48 NW7       30.20S WCI  34
POTTSTOWN      MOSUNNY   38  23  55 N5        30.22S WCI  34
LANCASTER      MOSUNNY   40  25  55 NW5       30.21S
COATESVILLE    MOSUNNY   39  27  60 N5        30.20F
READING        MOSUNNY   41  25  53 NW6       30.20F
ALLENTOWN      SUNNY     41  21  44 NW7       30.20F
MOUNT POCONO   MOSUNNY   31  19  61 NW10      30.12S WCI  22
HAZLETON       PTSUNNY   34  19  55 N5        30.18S WCI  30
WILKES BARRE   MOSUNNY   34  21  59 NW14      30.19S WCI  25

$$
DEZALL-MDZ008-012-015-019-020-291700-
DELAWARE AND EASTERN MARYLAND

CITY           SKY/WX    TMP DP  RH WIND       PRES   REMARKS
WILMINGTON     PTSUNNY   42  25  50 N8        30.23S
DOVER          CLOUDY    41  29  62 NE6       30.20S
GEORGETOWN     LGT RAIN  42  31  64 NE8       30.22R
EASTON         CLOUDY    43  34  70 NE6       30.26R
PATUXENT       LGT RAIN  42  34  73 NE9       30.22S
OCEAN CITY     LGT RAIN  40  35  83 NE8       30.22R WCI  34
WALLOPS ISLAND RAIN      42  41  96 NE8       30.20R
CAMBRIDGE      CLOUDY    43  32  65 E3        30.21F
SALISBURY      LGT RAIN  43  37  79 NE7       30.21R

$$
PAZ001-021-NYZ056-072-MDZ011-DCZ001-291700-
OTHER NEARBY LOCATIONS

CITY           SKY/WX    TMP DP  RH WIND       PRES   REMARKS
HARRISBURG     PTSUNNY   42  24  49 NW7       30.21F
STATE COLLEGE  MOSUNNY   34  23  64 CALM      30.21S
WILLIAMSPORT   MOSUNNY   35  26  69 W3        30.22S
BINGHAMTON     CLOUDY    29  22  75 NW9       30.13F WCI  20
NEW YORK CITY  MOSUNNY   39  18  42 NW9       30.20F WCI  33
BALTIMORE      PTSUNNY   42  26  53 N5        30.23R
WASHINGTON DC  CLOUDY    44  28  53 N8        30.25R

$$



USA.gov is the U.S. government's official web portal to all federal, state and local government web resources and services.